Theta_e
326 315 312 318 320 318 315 312 299 301 302 295 295 297 296 301 306 303 302 306 304 309 310 313 323 317 313 315 320 321 322 319 319 308 307 323 336 337 339 349 348 352 353 356 356 356 356 357 357 356 356 356 356 356 355 355 354 354 353 353 351 352 353 353 353 352 352 352 352 351 351 351 350 350 350 350 349 349 349 350 351 351 350 351 349 349 348 347 346 345 344 343 342 343 343 343 342
316 313 312 313 316 311 303 311 299 296 295 291 296 298 299 304 304 302 302 304 306 312 319 319 323 324 325 324 324 323 320 323 325 324 327 334 335 333 338 344 348 348 353 355 354 354 355 355 356 356 356 356 356 355 355 354 354 354 353 352 352 352 352 352 352 352 351 351 351 351 351 350 350 350 349 349 349 349 350 350 350 350 349 349 350 349 348 346 345 344 343 342 342 342 342 342 342
317 312 308 309 311 310 307 303 295 291 291 287 293 296 301 299 300 303 305 306 309 316 323 323 325 325 321 322 318 318 312 327 327 327 325 333 329 331 339 342 342 345 349 352 354 353 354 354 355 355 356 356 355 355 355 354 354 353 352 352 352 352 352 352 351 350 351 351 351 351 350 350 350 350 349 349 349 349 350 350 350 349 349 350 349 348 347 346 345 343 342 342 342 342 343 343 343
319 314 309 305 300 304 299 298 293 292 291 290 291 298 298 300 301 304 308 315 317 321 323 321 320 326 322 317 318 324 322 322 328 327 325 329 330 334 340 342 344 345 348 350 352 352 352 353 356 356 355 355 355 354 354 354 353 353 353 353 353 353 352 351 352 351 350 351 350 350 350 350 350 349 349 349 349 349 349 348 349 350 350 349 349 348 347 346 345 343 342 342 342 342 342 342 342
309 315 308 305 301 297 299 296 294 292 291 290 291 299 300 301 302 306 315 318 319 322 321 321 320 326 327 324 326 319 320 329 330 331 329 333 338 338 341 343 345 348 350 352 351 352 353 355 355 355 355 355 355 354 354 353 353 353 353 353 353 352 352 351 351 350 350 351 351 350 350 350 350 349 349 349 349 349 350 349 349 349 349 348 348 347 346 345 344 342 342 342 342 342 342 342 341
307 306 312 304 299 303 299 293 292 290 295 296 294 297 301 302 303 311 317 319 321 323 323 321 319 320 320 323 327 322 330 321 331 332 333 334 338 340 344 347 349 350 350 350 350 352 353 356 355 355 355 354 354 354 353 354 354 354 354 353 353 352 352 352 351 352 351 351 351 350 350 350 349 349 349 349 349 349 350 349 349 349 349 348 348 347 347 344 342 342 342 341 342 342 341 341 341
305 303 303 303 302 302 292 290 290 291 296 298 297 299 301 302 305 311 315 316 321 323 325 322 325 323 318 324 327 330 334 335 331 332 336 337 340 342 346 347 349 347 347 348 348 351 354 355 355 355 354 354 354 354 354 354 354 354 353 353 352 350 351 351 352 352 351 351 351 350 350 350 350 349 349 350 350 349 349 349 348 349 348 348 347 346 345 344 342 342 341 341 342 341 340 340 340
310 303 301 296 294 297 292 291 292 292 296 298 300 300 301 303 315 315 315 314 315 318 323 325 324 320 317 328 317 329 334 335 334 336 337 340 343 345 347 349 348 347 347 349 350 352 355 355 354 354 354 354 354 354 354 354 354 354 353 353 353 353 352 352 351 352 352 351 351 351 350 350 350 350 350 350 349 349 349 349 349 350 349 348 347 345 344 344 343 342 341 341 340 340 340 340 340
305 303 304 297 292 294 290 290 293 297 298 300 301 304 312 310 317 316 315 318 320 322 321 321 323 316 318 321 320 327 331 336 337 338 340 343 340 340 344 346 346 345 347 350 352 352 353 354 354 354 354 354 354 354 354 354 354 353 353 353 353 353 353 352 352 352 351 351 351 351 351 350 350 350 350 350 350 349 349 349 350 350 349 348 346 346 345 344 342 341 341 340 340 340 339 340 340
302 303 294 295 292 290 288 290 289 294 297 300 300 302 304 312 317 317 316 317 319 320 321 323 323 317 321 317 321 325 328 336 337 338 340 340 340 342 343 344 345 345 346 349 351 351 352 355 354 353 354 354 354 353 354 354 353 353 353 353 353 353 352 352 352 352 352 351 351 351 350 350 350 350 350 350 350 349 349 350 350 350 349 347 346 345 344 344 343 341 340 340 340 340 339 339 340
297 300 299 297 291 288 288 290 292 295 296 299 301 304 315 319 318 316 317 316 319 318 321 323 318 318 320 319 321 332 335 336 336 333 337 339 340 339 338 340 341 344 345 348 350 350 351 352 355 354 354 353 354 354 354 353 353 353 353 353 353 353 352 352 352 352 352 351 351 350 350 351 351 350 351 350 350 350 350 350 350 349 348 348 347 346 345 344 342 342 341 340 339 339 340 339 339
295 296 296 292 290 288 288 289 292 295 298 300 304 316 321 320 319 316 316 314 317 318 318 322 316 322 317 318 320 328 332 333 334 336 337 338 337 337 336 336 336 338 342 345 349 349 351 350 351 354 355 354 354 354 353 353 353 353 352 352 352 352 352 352 352 352 351 351 351 351 350 350 349 349 349 349 350 350 350 350 350 349 349 348 347 346 345 344 343 342 341 341 340 339 339 339 339
298 297 293 292 288 290 292 291 293 298 296 301 313 318 322 320 318 319 318 318 319 317 317 323 324 323 314 317 325 329 329 332 335 336 336 334 334 334 335 335 337 337 340 343 343 345 348 349 350 350 352 353 353 353 353 353 353 353 352 352 352 352 352 352 352 352 351 350 350 350 349 349 349 348 348 348 349 349 349 350 350 349 349 348 348 346 345 343 343 343 342 341 340 339 338 338 340
300 297 296 292 292 292 291 292 293 291 293 313 319 321 322 319 320 321 319 316 317 316 321 325 324 322 317 320 321 323 328 333 335 335 333 331 331 331 332 335 338 339 339 340 340 342 343 344 347 349 350 349 349 351 352 352 352 351 352 351 352 352 352 351 351 351 351 350 349 349 349 348 348 348 347 347 348 348 349 349 349 349 349 349 347 346 345 344 343 342 342 341 340 338 339 340 339
300 299 297 293 290 291 292 291 292 291 294 316 318 320 320 322 322 320 319 316 317 323 326 328 326 320 311 315 316 323 328 333 334 333 332 330 329 328 330 333 336 338 338 339 340 340 342 341 342 343 346 348 349 348 348 351 352 351 350 351 352 351 350 350 350 350 350 349 349 348 348 348 348 348 348 347 346 347 347 349 349 349 349 349 348 346 346 345 343 343 342 341 340 340 338 339 339
301 299 295 293 288 289 292 292 293 293 301 318 320 321 319 320 322 318 319 321 319 324 325 318 326 318 320 318 320 327 331 333 333 332 329 327 327 328 331 332 334 336 337 337 337 339 342 341 340 342 343 345 346 348 348 348 350 350 351 351 351 350 350 350 350 350 349 348 348 348 347 346 346 345 347 345 346 347 348 347 349 349 349 349 348 347 346 345 344 343 342 342 341 339 340 339 340
301 299 292 290 288 290 291 292 293 291 310 318 321 319 315 316 322 322 325 324 318 319 322 323 322 327 321 322 327 330 331 333 334 332 328 325 325 326 328 329 332 333 335 335 335 337 340 341 340 340 343 344 345 346 347 348 350 351 350 351 351 351 351 351 350 350 349 348 347 346 345 340 339 340 340 341 344 343 347 347 349 349 349 349 348 348 347 345 344 343 343 342 342 340 341 342 341
299 293 290 288 290 291 294 294 295 301 311 318 319 320 318 315 319 321 323 320 320 320 320 323 326 326 328 329 332 333 334 333 332 329 326 324 323 323 324 327 329 330 332 333 335 337 338 338 339 339 341 342 343 344 345 346 347 349 345 344 346 347 350 351 347 345 349 341 347 341 339 340 336 336 338 345 340 342 344 346 347 348 348 348 348 348 347 346 345 344 344 343 342 342 342 332 335
294 290 290 288 289 293 299 298 298 302 310 315 317 319 320 318 320 321 316 317 317 317 319 321 321 324 327 329 331 331 331 328 328 327 326 324 324 323 323 324 326 329 330 333 333 336 336 337 338 339 338 338 341 341 343 345 342 343 343 344 348 350 350 350 345 346 338 337 338 339 341 338 338 338 339 343 342 345 344 346 347 347 347 348 348 348 347 347 346 345 344 344 343 343 336 332 332
294 293 288 289 293 295 298 299 300 311 316 316 318 320 320 320 319 322 316 315 317 314 315 319 319 320 323 326 328 328 329 328 328 327 327 326 327 326 324 324 325 327 329 332 332 336 336 336 337 338 338 339 339 339 340 340 341 341 342 342 340 342 341 344 340 339 338 337 337 334 336 337 339 335 344 347 346 341 339 345 346 347 347 348 348 347 347 347 347 346 344 344 344 342 335 333 334
293 292 289 292 294 294 297 303 315 316 319 318 318 319 318 320 320 319 317 314 314 316 320 319 318 321 323 326 327 327 327 327 326 326 327 327 328 330 329 329 328 329 332 334 336 335 336 336 336 335 337 337 337 336 337 338 339 340 341 341 341 340 340 339 339 338 337 336 336 337 335 336 335 333 335 337 340 338 335 337 339 340 342 340 346 338 338 343 343 341 339 341 335 336 335 334 333
297 294 296 297 296 295 298 301 315 316 318 318 318 316 316 322 321 318 317 312 312 316 319 322 322 324 324 325 326 327 325 325 326 326 327 328 328 328 329 330 332 332 334 332 333 336 337 339 339 338 339 337 336 334 334 340 338 337 338 339 339 339 340 339 339 338 337 336 335 337 338 335 333 333 332 333 336 336 335 334 334 337 338 338 343 337 338 338 337 338 338 338 338 336 336 335 333
291 293 294 297 297 296 298 311 316 318 317 317 316 318 320 317 315 318 317 314 315 319 321 321 323 325 326 327 326 324 324 324 325 326 328 328 329 329 329 331 331 332 333 334 336 337 338 338 337 336 335 335 335 337 336 336 336 337 337 338 337 336 337 338 338 337 337 337 336 337 334 330 331 331 331 332 333 333 333 334 333 334 337 336 339 336 335 335 336 336 336 338 337 338 338 338 335
296 292 294 297 298 297 301 313 316 318 318 317 320 322 317 316 311 317 315 318 319 320 321 323 324 325 326 323 324 324 325 325 326 327 328 329 331 331 332 332 335 337 336 335 334 334 335 335 336 336 336 335 333 335 333 332 332 335 338 341 336 342 340 336 337 338 338 338 338 336 339 331 331 331 330 331 331 331 333 333 335 334 335 337 338 337 335 333 335 336 336 337 338 339 339 338 337
295 294 296 297 298 297 307 315 317 319 319 321 320 317 316 317 315 317 314 317 317 318 322 323 323 323 323 324 324 326 327 327 327 327 328 330 332 333 334 335 336 335 332 332 331 331 332 334 334 334 334 333 332 333 331 330 331 333 334 335 335 344 335 336 336 338 337 338 340 338 339 332 330 332 330 329 330 331 331 332 333 334 336 337 338 338 337 334 334 334 335 336 337 337 337 337 337
296 295 298 298 298 304 315 316 317 318 319 320 317 315 317 318 320 314 316 317 318 319 320 321 322 322 322 323 325 325 326 327 328 328 328 329 331 331 332 334 333 331 331 330 329 329 329 330 330 330 332 330 331 331 330 329 330 332 333 334 335 341 334 337 337 335 335 337 338 338 339 335 332 332 331 330 329 330 330 331 333 333 334 336 337 337 338 335 334 333 334 334 335 335 336 337 338
298 297 298 297 297 300 310 313 315 317 317 319 315 314 314 317 317 308 316 317 318 319 320 322 321 320 322 323 324 325 326 326 327 328 328 328 328 329 330 331 330 331 331 329 329 329 332 330 329 331 331 336 330 331 330 329 332 331 333 334 335 336 336 339 338 336 335 336 337 337 337 338 335 334 333 332 332 331 330 330 332 334 334 335 336 338 338 337 335 334 334 335 334 334 334 336 337
298 299 299 299 298 301 310 314 314 314 312 316 315 313 316 316 315 311 315 318 320 318 319 320 319 319 321 322 322 322 323 324 326 326 325 326 325 325 325 326 327 329 329 329 329 331 330 330 329 329 329 331 332 329 331 330 331 332 335 335 334 336 338 337 337 336 340 337 337 336 336 336 338 335 335 335 334 333 333 332 332 332 334 334 335 336 338 338 336 335 336 336 335 334 334 334 336
298 298 294 296 296 296 306 307 309 313 310 314 315 312 311 313 309 314 318 320 319 318 317 317 317 318 319 319 319 320 321 324 321 320 320 320 321 322 322 324 324 324 325 328 330 330 328 328 328 329 329 329 329 328 328 329 330 332 334 335 336 339 338 339 337 337 337 338 338 337 336 336 336 337 334 336 339 335 333 333 333 335 335 335 335 335 337 337 336 335 335 337 335 334 333 332 334
298 296 293 292 292 290 297 303 311 310 310 309 308 295 302 309 313 317 320 318 317 315 315 315 316 316 317 317 318 317 318 318 317 318 319 320 321 322 321 323 325 323 324 325 325 325 329 331 332 332 330 328 330 328 330 328 329 330 334 334 339 339 337 337 339 337 338 339 339 339 339 338 338 335 335 334 334 334 335 334 334 333 334 335 336 335 334 335 334 333 333 333 337 334 332 332 331
291 294 292 288 287 289 296 297 302 298 302 309 311 298 301 303 310 319 319 318 315 313 314 315 315 316 316 315 314 315 315 317 317 318 319 320 321 322 321 322 323 323 323 322 321 321 324 325 329 325 328 324 325 325 328 329 330 330 332 334 335 336 339 338 338 338 337 338 339 339 340 339 339 337 336 335 335 335 335 335 335 335 334 335 336 335 333 332 332 332 332 331 331 332 332 332 332
291 289 287 289 288 288 295 298 298 301 307 312 308 298 301 304 311 317 318 317 315 313 313 314 313 313 313 312 313 314 315 317 317 318 318 318 319 319 319 319 321 321 322 322 322 321 320 322 325 323 323 324 323 325 323 323 322 323 326 331 332 334 336 338 338 338 338 337 338 338 339 339 339 338 337 336 335 334 335 334 335 336 336 335 335 333 333 333 330 331 331 331 329 329 330 330 331
286 286 287 289 288 289 290 295 296 298 299 301 306 297 303 305 311 316 317 315 315 312 312 311 312 312 312 312 312 313 314 314 315 317 318 318 318 318 318 319 320 321 322 321 321 319 319 320 322 323 322 322 321 321 322 321 321 322 323 322 326 325 325 327 330 333 336 337 337 338 338 339 339 338 338 337 335 335 335 335 336 336 337 336 335 332 333 334 331 333 330 331 330 328 328 329 329
282 285 285 289 288 287 287 294 296 297 304 302 307 303 301 307 312 314 315 315 313 311 311 311 311 311 312 312 312 312 312 312 313 315 317 317 318 319 320 326 322 321 323 322 321 320 319 320 321 325 322 321 320 321 322 319 321 322 322 322 328 323 323 323 324 325 325 329 333 336 338 338 339 338 338 337 334 335 335 335 335 335 336 335 335 334 334 332 331 331 331 330 330 328 326 326 325
282 284 285 286 288 288 289 288 294 297 305 302 302 303 302 308 311 312 314 315 313 311 311 310 310 310 311 311 311 311 311 312 313 315 317 318 318 319 319 319 320 321 321 321 320 320 321 321 322 320 322 320 320 321 322 319 320 322 322 322 322 323 323 324 324 323 323 323 324 329 333 337 339 339 337 335 334 335 335 334 334 334 335 334 334 334 333 333 331 329 330 331 331 330 328 327 326
287 287 285 285 286 287 289 292 295 294 296 299 301 299 302 305 309 311 312 314 312 312 312 311 310 309 310 311 310 311 312 313 315 317 317 318 318 319 318 319 319 319 318 318 318 318 318 319 320 318 320 320 320 319 320 318 319 320 319 320 320 321 321 324 323 322 322 323 326 326 325 327 335 339 337 335 333 335 334 335 334 334 334 333 332 330 330 332 331 329 329 330 330 331 330 329 328
290 289 288 287 288 291 293 294 296 296 291 297 300 302 303 304 307 309 311 312 311 311 311 310 310 310 309 310 310 311 312 313 316 317 317 317 317 316 316 317 317 318 318 317 316 316 316 317 318 317 319 320 319 317 318 317 316 317 317 317 317 318 320 322 321 321 322 323 325 325 324 326 328 334 336 335 335 337 335 335 333 333 334 332 330 329 329 332 331 331 329 328 329 328 328 328 326
291 289 289 290 288 288 294 295 298 297 292 291 301 302 302 304 306 308 310 310 308 309 310 310 310 310 310 310 311 312 313 315 316 315 316 316 315 315 315 315 320 314 317 316 315 316 315 315 315 316 318 319 318 317 317 316 315 316 316 316 316 316 317 318 318 320 322 324 324 324 324 324 324 326 334 332 332 332 332 333 333 333 332 333 332 332 332 332 330 331 331 330 328 326 325 326 327
290 289 288 288 289 293 294 296 298 297 292 289 297 300 302 304 305 307 309 309 310 311 311 311 311 310 310 310 310 311 312 312 313 313 314 314 315 315 314 313 313 313 313 314 314 314 315 315 313 314 315 317 318 321 317 315 314 316 316 316 316 316 317 320 320 321 322 322 322 322 323 323 324 325 326 330 333 333 333 332 333 333 333 334 332 332 332 329 329 329 330 328 327 326 326 326 325
288 288 287 285 289 290 286 292 295 296 294 291 294 293 295 304 305 306 309 309 309 311 312 312 312 310 309 310 310 310 311 310 310 310 311 312 313 312 312 312 312 311 312 312 312 312 314 317 312 312 313 314 315 317 320 317 319 318 316 316 318 316 316 322 319 320 320 320 322 322 322 323 324 324 326 327 331 329 331 332 333 331 332 333 332 331 331 332 329 330 330 329 328 325 326 325 326
291 290 287 287 291 292 290 289 294 296 295 295 293 290 291 296 300 301 305 308 308 308 310 310 311 311 311 311 311 311 310 310 309 309 310 310 310 311 311 312 310 311 310 311 312 312 315 311 312 311 312 313 314 317 314 317 318 315 316 317 317 317 317 318 317 318 319 321 323 321 322 324 324 325 325 326 330 330 328 328 330 332 331 332 332 331 331 331 328 327 327 327 325 327 327 326 325
291 293 292 291 293 293 293 293 293 288 288 291 291 281 285 289 296 300 303 304 304 307 306 306 307 308 309 309 309 310 310 310 310 309 309 309 310 309 310 310 310 310 311 311 312 312 312 311 312 312 313 313 315 314 315 318 315 313 313 313 314 312 313 314 315 316 317 318 319 321 322 324 324 325 325 325 326 328 326 326 327 329 329 331 329 330 331 329 328 328 328 328 328 328 325 324 323
287 289 294 293 293 293 293 291 289 283 281 288 292 283 277 286 292 295 299 301 302 305 305 306 306 307 308 308 309 309 309 308 309 309 309 309 309 309 309 309 309 310 310 311 312 312 312 313 311 311 311 315 316 313 315 318 313 313 313 312 313 312 312 314 316 318 318 319 321 320 321 323 324 324 325 325 324 326 325 326 326 326 328 329 331 329 328 329 330 332 331 328 327 327 326 322 322
286 293 294 294 293 292 292 292 289 283 289 292 293 286 281 284 287 292 295 297 298 302 303 304 305 306 307 308 308 308 308 308 308 308 308 309 308 309 308 309 309 311 312 311 311 311 312 311 312 311 312 314 313 312 315 315 314 313 312 312 315 314 314 315 318 319 320 323 320 320 321 322 324 324 325 326 326 327 328 325 326 326 327 326 330 327 326 327 329 330 329 325 327 328 327 325 323
289 293 295 294 293 292 292 290 288 287 287 281 285 293 283 280 286 293 294 292 294 299 301 303 305 306 306 307 308 307 308 308 308 308 308 308 308 308 309 309 310 311 311 311 311 311 311 310 313 311 309 309 311 312 314 312 318 313 313 312 312 316 317 319 320 319 319 320 319 320 320 321 322 324 324 325 326 325 328 326 324 325 325 326 329 326 326 327 328 326 324 326 327 328 328 327 326
294 295 296 295 295 294 290 286 287 286 282 280 285 290 282 278 284 289 293 291 292 297 300 303 305 306 306 306 306 307 307 307 308 308 308 308 308 308 309 310 310 311 311 314 314 311 311 309 311 310 308 309 310 310 310 311 314 317 312 312 312 314 316 317 317 317 318 318 318 319 320 320 321 322 323 324 325 325 323 324 324 323 322 323 328 324 323 322 324 323 324 325 326 326 327 327 326
297 294 291 291 292 289 290 288 285 282 278 279 285 291 285 279 282 288 288 291 292 296 299 302 304 305 306 306 306 306 306 307 307 307 308 308 309 309 309 309 310 310 310 310 310 310 309 309 308 307 307 309 309 309 309 311 312 314 313 313 312 313 315 315 315 316 317 317 317 318 319 319 320 321 322 324 323 325 324 326 323 323 323 325 324 323 323 324 326 326 326 327 328 327 327 326 326
295 289 287 286 284 287 284 283 283 277 274 279 288 291 288 280 280 286 292 294 295 298 298 300 302 303 304 305 306 306 306 307 307 307 307 308 308 309 308 308 308 310 309 309 310 310 310 308 307 307 306 307 309 310 310 311 313 313 314 313 313 314 314 315 314 314 316 316 317 318 318 319 320 321 322 322 323 324 326 322 323 321 323 322 322 322 322 323 323 327 328 326 325 325 325 326 326
289 288 287 281 278 278 277 278 277 279 277 284 289 291 286 283 285 289 293 294 295 299 301 302 303 303 303 304 305 306 306 307 307 307 307 308 308 308 308 308 307 307 308 308 309 309 309 309 307 306 305 306 308 308 309 310 311 313 314 313 313 317 316 315 315 314 315 316 317 318 318 317 319 320 321 321 323 323 324 323 323 321 321 321 323 322 322 323 322 323 324 324 326 326 327 327 326
290 290 285 280 276 272 273 273 278 279 282 288 289 291 284 285 289 293 295 295 297 300 302 304 304 304 303 304 305 306 306 306 307 307 307 308 308 309 308 308 308 308 307 308 309 310 309 309 307 307 306 306 307 308 308 310 310 313 313 313 314 314 314 317 316 315 317 317 317 317 317 317 318 319 319 320 323 324 323 324 323 322 321 322 323 323 322 322 322 321 322 324 325 326 326 326 325
291 291 289 284 279 278 274 276 275 276 278 283 291 285 279 282 286 295 296 298 298 301 302 303 305 305 304 305 306 305 305 305 306 306 307 307 308 308 308 308 308 308 308 308 308 308 308 307 305 306 305 305 306 307 309 309 310 313 314 313 314 316 317 316 316 318 317 317 318 318 318 319 318 319 318 321 325 323 322 323 324 322 323 323 324 323 324 323 322 322 322 324 325 326 327 327 326
290 294 290 288 284 282 280 279 278 279 280 279 284 282 284 285 292 299 298 297 297 301 301 302 302 303 304 304 304 304 305 305 306 306 307 307 308 308 308 308 308 308 309 308 308 307 307 306 305 304 305 305 305 309 309 309 311 312 312 311 312 316 319 317 316 317 317 317 318 318 318 319 319 319 321 322 321 322 322 320 320 319 318 318 318 319 320 320 322 323 323 321 320 323 324 325 324
288 289 286 288 293 288 280 279 285 281 278 277 279 284 286 290 293 295 295 296 297 301 301 301 302 302 303 303 303 304 305 305 306 306 307 307 307 308 309 308 308 308 308 307 307 308 308 307 306 304 305 305 304 308 309 310 310 310 310 310 311 313 314 314 314 315 316 318 318 318 318 319 321 321 321 322 316 314 314 313 312 312 311 311 311 312 313 314 316 318 321 323 323 323 323 323 323
288 285 286 294 296 292 285 278 277 275 275 275 283 281 281 282 282 293 294 293 295 299 300 301 302 302 301 302 303 304 305 305 307 307 307 307 308 308 308 309 308 308 308 308 308 308 308 307 305 304 306 304 304 306 310 309 309 310 310 311 311 311 313 314 314 315 316 317 317 318 318 319 319 318 317 316 313 310 309 310 307 306 306 306 305 306 307 308 310 313 316 318 318 322 322 322 323
292 288 295 287 280 282 283 281 275 274 273 273 278 283 283 282 281 288 293 292 293 297 300 300 300 301 301 302 303 304 305 305 306 306 306 307 307 307 308 308 309 309 310 309 309 308 308 306 304 305 304 305 307 310 310 310 310 311 311 311 310 312 313 314 315 316 316 317 317 317 316 316 315 315 313 311 309 306 305 304 303 302 302 302 302 302 303 304 307 309 312 313 314 317 321 321 322
297 294 291 294 285 281 281 280 280 278 274 274 276 280 279 287 285 289 291 292 294 297 298 299 300 301 302 302 303 303 304 305 305 306 306 307 307 308 308 308 308 307 308 308 307 308 307 305 307 306 306 305 306 308 310 308 310 310 310 311 311 312 313 314 314 314 315 316 317 317 316 314 313 312 309 307 305 303 302 301 301 300 300 300 300 300 301 302 304 306 308 309 310 312 318 322 322
290 289 287 290 289 290 287 287 285 279 275 273 273 273 277 286 291 293 294 294 295 298 299 299 300 301 302 303 303 303 304 304 305 306 306 307 307 306 307 308 308 307 308 307 306 307 305 303 305 306 303 303 304 307 308 308 308 308 310 309 310 310 312 314 314 314 314 315 317 317 315 313 310 307 305 303 302 301 301 300 299 300 298 298 298 298 299 300 301 303 305 307 308 310 316 322 321
291 288 285 289 286 287 282 281 288 287 280 278 276 277 280 288 299 296 295 295 297 299 300 300 301 301 302 303 303 304 304 304 305 305 306 306 306 306 307 307 307 306 305 303 305 303 302 303 305 304 304 304 304 306 308 308 309 308 308 309 309 310 311 313 313 312 314 314 315 315 313 309 306 304 303 301 300 300 299 299 298 297 297 297 297 297 297 298 300 301 303 306 307 310 317 316 314
Wind_Speed
5 3 4 1 1 0 1 2 1 3 2 1 3 1 5 2 4 4 7 3 4 8 9 11 18 11 11 9 16 14 14 12 2 5 1 3 5 13 15 7 11 12 11 10 9 8 10 15 17 18 19 19 19 18 17 15 15 15 15 14 13 12 12 12 12 13 13 13 13 14 14 14 13 13 12 12 12 12 12 13 15 14 14 13 14 14 13 12 12 11 10 11 11 11 12 13 13
4 3 4 1 1 1 1 0 2 2 3 3 7 1 7 6 2 7 8 12 2 6 12 8 17 18 16 12 8 14 17 7 9 8 7 5 10 14 20 13 12 11 12 9 7 8 9 11 15 16 18 20 19 17 16 15 14 14 14 13 12 12 12 12 12 12 13 13 13 13 14 13 13 12 11 11 11 11 12 14 14 13 13 13 14 13 13 12 11 11 10 11 11 12 12 13 14
3 5 6 5 2 2 1 2 1 1 2 4 8 6 3 5 6 9 12 10 3 10 18 11 17 14 10 14 19 13 4 8 6 5 6 7 15 4 10 14 13 9 9 9 9 8 8 10 14 15 18 19 18 17 15 15 14 13 13 12 12 12 12 12 12 11 12 14 13 12 13 13 12 12 11 11 11 11 11 12 12 13 13 14 13 12 12 11 11 10 10 11 11 12 12 12 13
0 1 2 3 2 2 1 2 3 1 0 7 6 7 3 6 8 8 10 15 19 11 8 8 11 9 9 14 6 4 8 6 11 6 3 5 1 10 11 18 13 6 6 9 9 9 8 13 16 16 17 19 17 16 15 14 13 12 12 12 12 12 13 13 12 13 11 11 13 12 12 12 12 12 11 11 11 10 11 11 11 13 13 13 13 12 11 11 10 10 10 10 11 11 12 12 11
2 1 2 2 2 2 1 2 1 3 5 3 4 10 9 7 7 5 8 10 13 17 15 10 11 9 17 12 5 4 6 2 10 11 4 1 3 1 5 9 13 11 10 9 8 8 11 14 15 16 17 18 16 15 15 14 13 12 11 11 12 11 13 13 13 13 12 11 13 13 12 12 12 12 11 11 10 11 11 11 11 11 13 13 12 12 11 10 10 10 10 10 11 11 11 11 11
2 3 1 2 0 2 2 1 3 4 8 3 4 8 12 7 8 9 13 15 14 15 14 8 9 8 6 8 6 4 7 4 3 5 2 2 3 3 3 7 10 14 11 9 7 7 9 14 15 16 16 16 15 14 14 13 13 12 11 11 11 11 12 12 13 14 13 13 13 13 13 12 12 11 11 11 11 10 9 10 11 11 12 13 12 11 11 9 9 10 10 10 11 11 11 11 10
2 4 2 2 2 2 3 1 6 6 11 5 6 9 12 5 7 9 12 17 9 13 9 15 18 15 11 2 7 9 12 4 2 1 3 5 6 6 5 9 10 16 14 9 6 7 9 14 14 14 15 15 15 14 13 13 12 12 11 11 11 11 11 11 11 13 13 13 13 13 13 12 12 12 11 11 10 10 11 11 11 11 12 12 11 11 10 9 9 10 9 10 10 10 10 10 9
0 2 1 3 1 1 1 3 9 3 7 2 6 11 15 4 8 11 11 13 3 4 11 9 13 22 13 7 7 7 10 6 6 7 9 7 8 8 10 10 13 13 13 11 7 6 11 12 14 14 14 14 13 13 12 12 12 12 11 11 11 11 11 10 10 10 11 12 13 13 13 12 12 12 12 10 9 11 11 11 11 11 11 11 11 10 9 9 9 9 9 9 10 9 8 9 8
2 2 1 1 1 1 1 6 7 1 9 9 11 12 14 8 12 15 14 12 12 13 11 6 6 18 5 10 9 5 6 6 4 6 7 7 8 6 6 10 12 12 12 10 7 9 7 11 13 14 14 14 13 12 12 12 12 11 11 11 11 11 10 11 11 10 10 11 11 12 12 12 11 11 12 11 10 10 11 10 10 10 11 10 10 9 9 8 8 8 8 8 8 8 8 7 7
3 2 1 1 1 4 2 7 2 8 7 9 9 13 11 10 14 23 19 16 15 18 15 19 17 21 11 12 6 4 3 5 8 10 8 9 9 9 11 11 11 11 11 9 8 7 7 11 12 13 13 12 12 12 12 11 11 11 10 10 10 10 10 10 10 10 10 10 11 12 12 12 12 11 11 12 11 11 11 10 10 10 10 10 9 8 8 8 7 7 8 7 7 7 7 7 7
3 1 1 0 1 4 5 8 7 9 7 5 7 9 11 16 18 11 17 17 8 14 14 11 18 15 12 8 6 3 3 7 8 12 9 9 9 12 13 12 12 9 8 10 9 8 6 5 12 12 12 11 10 9 9 9 9 9 9 9 9 9 9 10 10 10 10 10 10 11 11 11 11 10 9 9 11 12 11 10 10 10 10 10 9 8 7 7 7 6 6 7 7 6 7 7 7
2 1 4 0 1 4 5 4 8 10 11 8 9 11 6 11 13 12 12 13 4 11 7 2 9 14 15 6 4 3 4 7 9 12 11 9 9 12 12 10 13 14 10 9 10 8 7 5 5 11 12 11 10 10 10 9 8 8 8 8 9 9 8 8 7 8 8 9 9 9 10 12 12 11 11 10 9 9 11 11 10 10 9 10 9 8 7 6 5 5 5 6 6 6 6 6 7
1 0 2 1 3 1 5 5 6 6 5 7 7 6 10 18 15 15 14 16 9 13 12 9 14 8 6 6 3 6 8 9 7 7 8 10 11 10 13 14 14 10 9 12 11 9 7 5 5 5 8 11 10 9 9 8 8 7 7 7 6 7 7 7 8 8 8 8 8 9 9 9 10 10 10 9 9 8 10 10 11 10 9 9 9 9 7 6 5 5 5 5 5 5 5 5 6
1 2 1 4 0 1 4 7 3 2 6 4 10 7 11 9 7 6 15 15 11 11 5 8 12 21 15 8 3 6 7 3 3 2 5 9 9 11 15 14 16 13 12 8 9 8 7 5 4 4 4 4 4 6 9 8 8 7 7 6 6 5 6 6 6 7 9 7 8 8 9 10 10 9 9 9 8 7 6 9 9 9 9 9 9 8 8 6 4 3 4 4 3 3 4 5 5
3 1 0 1 4 2 4 3 2 4 3 10 8 9 14 12 5 9 11 17 11 4 5 7 1 5 5 11 6 6 7 4 4 3 1 4 6 7 6 10 12 15 14 9 8 6 4 4 5 5 3 3 5 4 3 6 9 8 7 6 5 5 4 4 4 6 6 6 6 7 6 7 8 9 10 9 8 7 7 8 10 9 9 9 9 9 8 7 5 3 3 3 2 2 3 4 4
2 1 2 0 4 3 6 1 4 7 7 10 4 11 24 15 6 15 11 8 8 9 7 6 8 5 11 8 12 10 4 1 3 4 2 4 5 5 3 1 6 11 13 11 8 4 2 4 4 4 3 4 3 4 5 3 7 8 8 6 7 5 6 5 5 4 4 4 3 4 5 3 3 1 4 4 6 7 7 4 9 9 9 10 9 9 9 8 7 3 2 2 1 1 3 4 5
0 2 1 1 6 5 3 2 4 3 8 7 8 7 17 14 12 18 11 12 20 12 16 11 10 8 10 9 9 7 3 2 2 2 3 3 3 2 0 2 6 6 7 10 8 5 4 4 3 4 4 4 4 3 4 4 5 7 6 7 7 7 7 6 6 6 5 5 3 4 5 4 4 3 2 3 2 0 3 5 8 10 9 10 10 9 8 8 7 4 3 1 0 1 3 5 6
1 1 2 3 7 7 0 1 2 3 6 8 6 11 22 16 10 11 16 23 21 17 18 13 16 12 9 8 7 5 2 1 2 1 1 2 2 3 3 3 7 8 8 7 6 5 4 3 3 3 4 4 4 4 3 3 2 3 3 3 2 3 5 6 4 2 4 1 4 3 1 0 2 2 3 3 1 2 2 4 5 8 7 7 8 8 7 7 6 5 3 2 1 1 3 2 4
2 1 2 7 3 2 1 3 0 5 9 7 6 2 13 12 11 7 19 15 17 19 15 12 15 10 7 7 6 5 3 2 1 2 2 3 1 3 3 1 3 7 8 7 6 5 3 2 2 3 2 3 4 3 3 3 4 3 1 1 1 4 4 4 3 3 2 2 3 3 2 1 1 2 2 3 0 4 3 5 4 6 6 6 6 7 7 7 6 5 4 3 2 3 2 2 4
3 2 2 6 4 4 6 3 2 8 12 13 14 12 17 12 13 13 20 17 15 18 14 12 13 11 7 5 3 2 3 4 4 3 3 3 3 2 1 1 2 2 4 6 6 3 3 2 2 2 3 3 4 4 4 4 4 4 4 3 1 2 1 2 2 3 2 2 3 2 2 2 3 2 2 5 4 3 4 6 6 6 6 7 7 5 6 7 6 5 4 4 3 3 3 3 4
2 3 4 6 5 3 3 11 17 13 17 11 11 7 16 9 7 16 19 20 15 12 8 13 13 13 10 7 5 3 4 4 4 3 4 6 5 4 4 4 3 3 3 5 5 3 2 1 0 1 2 2 2 2 2 3 1 2 4 3 4 3 3 1 0 0 1 1 1 2 2 2 1 2 2 1 2 1 2 3 4 4 4 2 5 1 1 2 3 3 1 2 2 2 3 4 4
1 7 10 10 2 2 3 8 9 18 16 18 13 17 13 10 11 7 14 18 9 10 11 13 14 12 12 10 7 5 5 5 4 4 6 5 5 5 5 5 4 3 2 4 4 3 2 1 2 2 3 3 2 2 1 1 1 2 2 2 3 2 2 2 3 3 1 1 1 1 1 0 1 1 1 2 2 2 2 1 1 3 3 2 1 0 0 0 1 1 2 3 3 1 2 3 3
6 6 5 9 5 3 2 12 9 15 11 13 14 15 13 15 12 10 14 13 7 5 9 9 10 10 7 5 5 5 6 5 5 4 5 6 5 4 4 3 3 4 3 3 2 3 4 4 4 4 4 4 4 4 3 4 3 3 3 2 2 1 1 0 1 1 2 3 3 1 1 2 2 1 2 2 2 2 3 3 2 1 3 3 2 2 1 1 1 2 2 3 3 3 3 3 4
8 8 4 5 4 6 7 10 10 13 17 15 16 14 19 19 17 4 16 9 9 6 5 5 6 8 8 7 4 5 4 5 5 5 4 4 4 5 4 5 4 4 5 5 4 3 3 4 2 3 3 3 2 3 3 4 3 3 2 2 2 0 0 1 2 2 2 3 2 1 1 2 3 3 2 1 1 1 3 2 3 3 3 3 3 2 3 2 3 2 2 3 3 4 4 4 4
10 9 6 3 1 1 14 10 12 16 17 16 18 21 13 18 15 8 11 8 7 6 6 7 8 7 6 8 6 6 6 6 6 5 4 4 4 6 5 3 4 4 4 3 2 3 2 2 3 3 3 3 3 2 2 1 1 1 2 1 1 2 1 1 2 2 2 3 2 2 1 2 2 3 3 2 1 2 3 3 3 3 3 4 2 4 4 4 4 4 4 5 4 4 4 5 5
1 6 3 2 2 15 12 14 14 16 11 19 22 19 18 20 19 13 9 7 8 7 8 8 8 8 7 7 6 4 6 7 7 5 4 2 4 6 5 4 2 3 2 1 2 2 1 2 2 1 1 0 0 0 0 1 1 2 1 1 2 1 2 3 2 2 4 3 3 2 2 2 3 3 3 3 1 2 1 2 3 4 4 4 4 4 4 4 5 5 5 5 5 5 5 6 4
2 3 0 6 4 16 11 16 11 11 9 21 24 17 14 9 3 5 2 7 8 10 10 7 8 9 7 7 5 4 5 6 6 4 5 4 4 4 2 2 2 2 2 3 2 1 1 1 0 0 1 1 1 0 1 1 2 3 3 2 3 3 2 1 2 3 4 4 3 2 2 2 2 3 3 3 3 2 2 2 3 3 4 5 5 5 4 5 5 5 6 6 5 5 6 6 5
1 0 4 10 11 13 14 16 14 12 7 16 21 17 15 13 10 10 8 8 10 13 11 9 8 8 8 7 6 4 4 3 4 3 6 5 3 2 2 2 1 1 2 1 1 1 0 0 0 2 2 2 2 2 1 1 2 3 3 3 3 4 2 2 3 3 4 4 3 3 2 2 2 3 3 3 3 3 3 3 3 3 5 5 5 5 5 5 5 5 4 5 5 5 5 5 5
1 9 6 7 9 4 18 15 10 16 10 16 21 19 13 5 12 11 10 11 12 12 10 9 7 7 7 5 5 2 4 2 2 3 3 3 2 1 3 1 2 2 0 2 1 0 0 1 1 2 2 1 1 2 2 3 3 4 5 5 4 4 3 3 4 4 4 4 3 3 3 3 3 4 4 4 4 4 4 4 3 4 4 4 4 5 5 4 5 5 5 4 4 4 4 5 5
3 5 2 5 8 4 9 8 11 14 11 5 7 6 4 10 13 9 11 12 14 13 10 8 7 8 6 5 2 2 2 3 3 2 2 3 2 2 3 2 2 2 2 3 2 2 1 1 1 1 1 2 2 2 2 2 2 3 3 4 4 4 4 4 4 4 4 4 4 4 4 4 4 4 4 4 4 4 4 4 4 5 5 4 4 4 5 5 5 4 6 4 5 5 6 6 5
3 2 6 3 5 3 9 1 8 7 5 3 16 10 6 1 4 9 10 13 16 13 11 10 9 9 7 4 4 4 3 3 3 2 3 2 2 1 2 2 3 3 3 3 3 1 2 2 1 2 3 3 3 4 3 3 3 3 4 4 4 3 3 3 4 4 4 5 4 5 5 5 5 5 5 5 5 5 5 5 5 5 4 3 4 4 4 4 4 5 5 5 6 5 6 6 5
3 3 3 3 6 3 6 4 7 12 2 18 19 8 7 10 10 13 11 11 16 15 11 10 8 8 8 7 6 6 4 3 3 3 2 3 3 3 3 2 2 2 2 1 3 4 5 5 5 6 6 7 6 6 5 5 5 5 5 6 5 5 4 4 4 5 5 4 4 5 5 6 6 6 6 5 5 5 5 5 5 5 4 3 4 4 3 4 3 4 5 5 6 7 6 6 5
5 5 1 2 2 1 4 3 2 8 7 4 11 8 8 9 11 12 8 10 12 13 12 9 6 9 8 7 6 6 5 3 3 3 3 3 3 3 2 3 3 1 1 3 3 3 4 5 5 5 6 6 6 7 7 6 7 6 6 6 5 5 6 6 6 5 5 5 5 5 5 5 6 7 7 5 5 5 5 5 5 5 4 5 3 3 4 5 3 3 3 4 5 7 6 6 5
3 1 1 0 2 2 2 7 6 8 12 7 15 12 4 10 13 10 8 11 11 11 9 9 9 7 8 7 7 6 5 4 3 3 3 2 2 2 3 3 3 4 3 3 3 3 4 4 4 4 4 5 5 6 6 6 6 6 6 6 4 6 5 5 5 5 5 5 5 5 6 6 5 6 8 2 3 3 4 5 5 5 4 5 5 5 4 2 3 3 4 3 5 4 4 4 3
2 1 2 2 1 3 0 3 6 9 12 14 5 11 10 13 12 12 11 9 12 11 11 9 8 8 7 8 8 7 6 6 4 3 2 2 2 3 3 3 4 4 4 5 6 6 5 6 6 6 5 5 6 6 6 6 6 5 5 6 6 6 7 6 5 6 5 5 5 5 5 6 6 5 2 2 6 6 5 5 5 4 4 4 4 5 5 4 2 2 3 5 3 4 4 3 4
3 5 2 3 4 1 2 1 2 9 7 11 11 11 10 11 11 10 9 9 11 9 7 7 6 6 5 5 7 7 7 6 4 3 3 2 2 3 3 3 3 3 4 4 6 7 7 6 6 7 7 6 7 7 8 8 7 7 8 8 9 8 7 7 6 5 6 6 6 6 6 6 6 5 5 6 8 7 5 4 5 5 4 1 1 4 6 6 5 4 4 4 6 5 3 3 2
4 3 3 3 4 1 1 1 3 3 6 7 10 14 13 12 12 11 10 8 9 10 9 9 9 8 8 7 7 7 7 7 5 5 3 3 3 3 3 3 4 5 5 6 6 5 5 5 6 7 6 6 6 7 7 7 7 8 6 6 5 5 6 5 5 6 6 6 6 6 5 6 5 5 3 5 6 6 5 5 6 7 6 2 3 5 6 4 6 5 3 2 3 3 3 3 2
6 5 5 1 2 5 1 1 4 4 3 1 7 12 12 11 10 10 9 10 9 14 13 11 11 11 10 10 9 8 6 4 5 4 3 3 3 3 4 4 4 3 4 4 4 4 4 6 6 5 5 3 4 3 4 4 3 3 3 5 3 5 6 6 6 6 7 7 7 6 6 5 5 4 4 4 4 4 4 5 5 6 4 4 5 6 5 3 5 6 4 7 1 2 3 1 1
5 6 4 4 4 0 2 1 1 1 8 5 4 13 10 12 13 12 14 16 15 14 17 16 15 14 11 11 11 9 8 7 5 4 4 3 3 3 3 3 3 2 2 3 3 3 5 5 4 4 3 2 1 1 2 3 2 3 2 3 5 4 3 4 5 5 4 6 6 6 6 6 6 6 5 3 4 3 5 5 5 5 5 5 4 4 3 3 5 8 1 4 6 4 4 2 2
6 5 3 3 3 2 2 3 2 2 2 6 8 7 7 9 12 15 16 15 15 14 17 17 16 17 15 16 14 13 12 11 9 8 6 5 4 3 3 2 1 2 3 3 3 3 3 4 4 4 3 2 2 3 3 4 3 3 3 3 4 3 3 4 4 5 6 7 7 6 6 6 7 6 6 6 4 3 3 4 4 4 5 5 5 5 4 5 3 6 5 4 3 6 5 5 3
2 3 2 2 1 3 5 4 1 0 2 5 7 4 3 7 11 7 10 9 7 8 10 10 10 9 10 10 9 11 14 13 11 9 6 6 5 5 4 3 2 1 1 2 2 1 2 3 4 3 3 3 3 3 4 4 3 5 4 5 4 4 4 6 5 7 6 6 6 7 8 7 7 6 5 5 4 4 3 2 3 4 4 4 4 4 5 5 3 4 3 2 3 5 6 3 3
1 3 5 6 6 5 3 3 0 1 1 2 8 2 2 3 10 15 10 5 5 9 12 12 11 9 12 13 12 9 9 10 14 13 11 8 7 5 4 4 3 1 0 1 1 2 1 2 4 5 5 4 4 4 4 4 4 3 5 6 6 5 6 6 7 7 7 7 7 6 7 7 6 6 6 6 5 4 5 4 2 1 2 3 1 2 3 2 2 2 3 3 4 4 4 5 6
3 4 6 5 3 5 5 4 3 1 2 4 3 6 2 3 3 10 12 9 11 9 13 14 11 12 13 13 12 12 12 9 6 6 7 7 6 5 4 4 3 3 2 2 2 1 1 1 2 3 3 3 4 5 5 3 4 3 3 3 2 3 4 4 4 5 5 6 5 6 6 6 6 6 6 5 4 3 3 3 2 2 2 2 2 3 3 4 3 2 2 5 6 3 4 6 10
1 4 3 5 5 5 9 10 9 5 2 3 4 4 4 1 5 5 4 12 11 14 15 13 12 13 14 13 13 12 11 9 10 9 8 7 7 7 6 5 4 4 4 2 2 1 0 0 2 3 2 3 3 4 4 4 2 1 3 3 2 3 3 4 6 6 5 5 6 6 6 6 6 5 5 5 4 4 3 2 0 1 1 2 2 3 3 2 2 2 3 3 3 4 5 7 7
4 3 5 0 2 6 8 10 8 3 6 1 2 2 3 1 5 1 5 6 7 15 16 14 13 13 13 13 13 13 11 11 12 11 10 9 9 7 6 6 5 4 3 3 3 2 1 1 2 2 3 3 4 4 4 4 1 1 2 2 4 3 3 4 5 4 5 5 5 6 5 6 6 6 5 5 4 3 3 3 2 0 0 1 0 1 1 1 2 2 2 3 5 6 8 8 7
2 3 2 3 4 4 7 4 5 1 3 1 3 1 2 3 5 1 0 3 7 11 14 15 15 15 13 12 11 11 10 9 10 11 11 8 8 7 6 5 5 5 5 4 1 0 0 2 3 2 3 3 3 4 4 3 0 1 2 3 4 5 4 5 4 5 5 5 5 6 5 6 6 6 6 5 4 2 2 2 3 3 2 1 1 1 1 2 2 3 2 2 3 3 5 5 7
1 4 4 5 7 5 3 6 3 3 2 2 3 1 3 1 4 7 6 7 8 9 6 9 10 10 11 13 15 13 12 10 9 8 8 7 6 6 4 5 5 4 4 3 0 0 1 2 3 3 3 3 4 4 4 3 0 1 0 1 3 3 5 4 5 6 6 6 6 6 6 6 5 5 5 5 4 4 3 3 3 3 3 3 3 2 2 2 2 2 3 4 4 4 4 5 6
3 3 2 4 4 8 6 4 5 2 2 4 3 4 3 1 2 5 7 5 9 16 13 12 12 14 14 12 12 12 11 10 9 9 8 8 6 5 4 4 4 4 3 2 1 0 1 1 2 3 3 4 4 4 4 3 0 0 0 1 3 3 3 3 4 5 5 5 5 6 6 6 6 6 5 5 6 5 3 3 3 3 3 4 4 3 3 3 3 3 3 2 3 4 4 5 4
6 5 8 4 2 4 1 5 1 1 1 1 1 2 2 2 8 6 5 6 5 12 16 15 15 14 12 12 13 12 11 10 10 9 9 8 8 8 5 5 4 4 4 4 2 1 0 1 1 2 4 4 5 4 4 4 1 1 1 2 3 3 3 3 3 4 4 4 5 5 5 6 6 6 6 6 6 6 4 4 4 4 3 3 3 2 2 2 3 3 3 3 3 4 3 2 3
2 1 2 4 1 2 1 2 1 2 6 6 4 1 2 4 7 7 8 7 7 9 14 17 17 17 16 15 14 12 11 11 10 10 10 10 10 9 9 6 5 4 4 3 2 1 1 0 1 1 4 4 4 4 4 4 2 2 1 2 3 3 4 4 4 3 5 4 4 4 4 4 4 4 5 6 6 5 5 4 4 4 3 3 3 3 3 3 2 3 3 3 4 3 4 5 5
2 3 5 6 6 3 1 2 2 3 5 4 2 3 4 1 3 2 7 6 5 8 14 13 15 16 16 15 14 13 11 9 10 10 11 11 11 10 9 7 6 5 4 4 3 2 1 2 2 2 3 4 4 4 4 4 3 2 4 4 4 4 4 4 4 3 4 4 5 4 4 4 4 5 5 4 5 5 4 5 6 5 6 6 5 5 4 4 3 3 2 3 3 2 4 4 3
2 2 5 6 1 6 1 5 4 2 1 2 0 3 3 3 3 4 0 2 3 6 10 10 8 8 12 12 13 12 10 11 10 10 11 11 10 10 9 8 7 6 6 5 4 4 3 4 4 3 3 4 4 4 4 3 2 2 2 3 4 4 4 4 5 5 5 4 5 4 5 4 4 4 5 5 7 7 8 8 9 9 8 9 9 9 9 8 8 6 5 4 4 2 2 3 4
2 2 0 2 4 7 2 2 0 3 4 3 1 5 4 6 4 3 4 4 4 6 9 10 9 10 13 14 13 13 12 12 11 11 11 11 10 9 10 9 8 7 7 7 6 6 6 5 4 4 4 3 3 2 0 1 3 3 3 3 4 5 4 4 5 5 5 5 4 5 5 4 5 6 5 6 7 8 8 8 8 8 9 8 9 9 9 8 7 7 7 7 8 6 4 4 4
2 3 2 1 4 4 4 2 2 2 2 4 0 3 4 2 2 4 4 2 4 5 8 12 11 11 14 13 14 15 14 14 13 12 12 13 12 12 10 10 10 10 10 8 8 6 6 6 5 5 3 1 4 1 0 1 3 3 4 4 4 3 3 4 4 4 4 4 5 6 6 7 6 6 6 6 7 8 8 9 7 8 8 9 9 8 8 8 8 7 8 7 8 7 6 5 5
5 2 3 4 2 1 3 3 1 1 2 3 3 2 2 5 3 2 1 5 5 6 6 10 11 11 14 13 14 13 12 12 12 13 11 11 11 11 11 11 10 10 10 9 8 7 6 5 4 5 3 1 1 2 0 1 2 2 2 3 3 3 4 4 4 4 4 4 5 6 6 6 7 7 8 8 8 8 8 7 8 8 8 9 9 9 9 8 8 7 8 7 8 8 6 7 7
2 2 2 1 5 3 1 3 2 4 2 1 5 2 2 4 3 5 4 6 9 7 7 11 15 13 12 13 14 15 15 13 13 13 12 12 12 12 13 12 11 10 8 7 7 6 7 5 5 2 0 0 3 3 0 1 1 1 3 4 4 3 3 3 3 3 4 4 4 5 5 7 6 7 7 7 8 8 9 9 8 9 9 9 9 9 8 8 7 7 7 7 7 7 7 7 8
1 1 3 2 1 2 3 0 1 2 3 3 2 3 3 5 5 6 7 7 10 12 11 9 10 11 11 14 15 14 14 13 13 13 13 12 12 10 11 11 10 7 6 6 7 8 5 3 5 4 4 4 3 1 1 0 1 1 2 3 4 4 5 4 4 3 3 4 4 5 6 5 7 7 7 8 9 8 8 7 8 8 8 8 9 9 8 7 7 8 7 7 8 7 7 8 9
6 7 6 7 3 1 0 5 2 1 3 2 1 4 7 9 2 5 6 6 9 10 12 11 9 7 9 10 12 14 13 14 14 13 12 12 11 10 10 9 7 7 7 6 7 6 5 5 6 5 4 4 4 2 2 1 1 0 1 2 3 3 4 3 4 3 3 3 4 5 5 6 7 6 8 8 8 6 7 7 8 8 8 8 8 8 8 7 8 9 8 6 8 8 10 12 11
Wind_Direction
299 332 329 15 65 47 56 7 55 309 53 265 278 287 255 235 238 293 268 290 296 71 2 19 45 50 90 145 114 91 57 73 93 119 83 283 327 6 357 97 91 98 100 106 107 109 110 114 114 112 110 106 103 101 101 101 100 97 96 96 98 100 97 95 95 95 95 93 93 95 97 97 96 97 100 102 102 97 95 95 90 89 90 94 93 92 93 92 92 92 92 89 89 92 96 101 102
289 338 349 7 286 53 334 93 106 353 33 7 266 214 250 268 296 254 265 275 219 110 81 34 69 74 87 128 137 93 49 62 135 128 164 204 85 25 360 17 85 89 97 92 87 95 101 105 105 109 107 102 101 101 101 101 101 102 102 105 107 105 104 101 100 101 99 98 97 98 99 100 101 99 99 99 101 99 95 91 93 98 99 98 93 93 92 91 90 90 89 88 88 90 91 94 101
309 5 357 24 24 77 252 53 356 4 52 304 277 220 311 309 256 273 272 276 339 101 91 68 50 25 14 38 44 42 126 36 35 111 112 322 72 315 65 47 46 37 77 87 83 84 90 99 103 102 102 102 102 104 104 106 107 109 111 114 113 111 109 104 97 93 96 99 96 97 101 101 101 102 100 100 97 97 97 99 103 100 97 91 91 89 87 87 86 86 86 86 87 87 86 87 92
253 59 90 43 336 18 58 26 110 138 166 234 283 269 232 259 268 278 3 38 76 83 61 32 55 345 57 29 13 71 66 36 22 7 69 7 264 172 142 121 118 93 56 80 79 87 89 97 94 94 98 101 104 107 109 110 110 111 114 115 113 112 110 102 99 91 92 98 104 102 104 105 105 105 103 100 99 95 89 92 95 93 90 88 88 86 84 83 84 83 83 84 85 83 79 75 74
19 272 115 91 104 352 87 204 164 105 224 205 225 282 268 238 255 96 80 61 97 100 100 132 96 68 73 64 13 49 343 273 16 40 114 45 241 227 132 100 105 93 79 66 67 78 93 95 97 99 101 103 104 106 109 110 110 111 112 112 112 113 109 111 112 116 118 116 114 113 109 108 109 109 107 103 98 86 84 85 90 94 91 89 87 84 82 81 80 81 81 81 80 75 69 67 64
17 49 14 91 157 196 42 356 310 234 230 187 236 256 263 277 316 89 84 63 52 74 95 56 111 178 55 48 21 59 348 68 349 60 98 59 73 310 48 80 92 93 87 79 71 84 95 98 99 100 101 103 105 107 109 110 113 112 110 108 109 110 113 119 124 124 126 121 118 117 116 115 113 110 106 102 92 89 93 93 92 89 91 91 90 87 84 80 78 79 79 79 72 67 64 58 53
350 17 5 28 340 52 152 176 254 237 271 170 253 262 273 329 359 114 93 76 38 58 60 112 118 105 81 108 68 37 13 13 121 36 135 130 108 106 87 84 96 101 95 85 75 90 99 103 102 101 102 104 105 108 109 109 111 112 113 113 111 109 108 111 117 124 124 123 123 122 121 119 117 113 107 98 97 101 95 95 92 88 89 91 91 90 86 81 78 77 77 73 68 64 59 53 47
151 83 285 75 299 31 322 223 254 176 271 185 243 276 284 28 73 53 53 92 63 67 55 97 91 80 62 35 91 37 38 34 103 111 124 148 130 118 113 111 96 94 104 111 131 109 99 104 103 101 100 101 105 108 110 111 114 115 118 116 116 113 114 115 118 120 124 126 127 126 124 123 118 114 106 99 98 101 103 99 98 96 95 95 96 94 92 87 80 78 76 71 68 64 59 51 43
8 95 312 62 356 1 9 262 263 255 281 280 274 258 263 81 107 88 80 94 88 54 55 69 102 85 118 74 62 46 44 87 104 121 123 102 88 78 66 80 86 92 94 94 102 97 91 103 104 105 105 108 111 114 117 119 121 123 121 119 119 122 124 127 129 133 130 126 124 124 123 120 120 119 114 111 106 106 106 106 103 103 100 100 101 100 97 92 85 81 78 74 69 64 57 46 40
347 101 299 147 132 313 262 285 338 253 239 271 281 283 273 117 97 104 103 82 101 95 80 75 73 101 111 75 95 37 34 104 124 93 74 80 89 82 71 70 80 86 85 90 86 83 94 102 101 107 109 112 117 120 122 123 125 124 120 120 122 126 130 136 139 139 132 127 128 129 128 129 129 126 121 119 114 113 114 115 113 108 106 105 103 102 98 94 86 80 79 74 69 59 52 42 33
319 354 168 50 3 268 263 271 270 302 297 308 298 328 97 127 112 114 115 119 129 114 132 98 71 91 86 69 61 36 75 119 121 100 94 90 81 74 73 58 50 45 68 77 78 71 72 75 87 85 91 97 103 107 113 116 118 117 119 120 122 126 133 139 140 138 136 136 137 134 127 120 111 109 101 104 121 125 122 120 122 119 119 116 112 104 98 91 85 73 69 67 61 50 42 33 26
350 42 10 98 246 231 258 250 289 290 295 336 15 40 12 73 81 83 77 87 71 73 44 273 132 109 72 85 64 52 96 107 108 103 98 93 85 87 84 80 60 42 20 44 58 68 63 55 64 85 85 87 87 91 96 99 105 107 110 117 124 128 128 129 134 138 139 134 127 121 123 127 131 130 126 123 115 126 135 134 130 131 128 125 119 114 104 96 91 78 60 55 47 40 34 25 25
188 21 86 107 239 181 248 276 264 291 349 8 79 69 85 70 74 89 76 65 28 66 32 64 144 94 103 77 78 106 106 113 101 102 111 106 105 106 108 97 81 65 40 35 43 38 46 56 69 78 88 91 93 94 94 97 97 99 104 112 117 124 128 131 136 140 132 131 133 131 130 127 129 134 135 132 131 135 142 141 137 137 134 128 125 118 113 107 97 92 79 55 37 24 23 17 22
150 174 113 284 298 248 254 259 294 356 20 65 34 35 42 66 60 78 95 64 31 52 0 71 88 98 105 113 83 123 127 144 47 55 129 124 123 120 120 121 118 114 77 52 42 41 24 17 52 68 80 82 79 90 104 101 102 107 111 113 116 118 128 131 127 134 145 146 146 141 141 141 140 144 147 142 142 137 135 141 141 139 137 133 130 127 125 122 121 113 105 87 44 20 6 7 17
259 202 99 172 285 312 236 239 348 34 48 54 1 52 61 40 57 72 46 100 32 28 109 33 303 52 183 145 143 155 172 248 338 9 81 122 112 101 87 109 118 109 101 87 69 50 23 43 54 50 52 81 95 102 99 117 115 118 122 125 121 123 117 121 118 132 145 144 145 144 143 143 151 159 159 153 150 146 140 142 147 149 143 143 141 142 142 143 144 149 146 119 102 16 352 352 355
208 96 100 315 272 244 281 24 59 58 74 90 108 86 69 46 5 60 6 73 88 32 47 29 22 85 143 120 146 151 167 6 7 25 35 94 76 56 33 19 90 100 109 106 93 84 61 67 62 67 75 82 97 110 112 109 120 126 127 133 127 136 129 129 125 117 109 108 116 119 138 143 148 154 163 155 158 155 149 151 156 158 155 151 151 153 154 153 152 175 183 145 124 31 337 343 342
64 93 326 57 279 256 276 92 53 88 137 126 167 93 91 74 52 67 60 64 75 40 56 29 67 65 104 108 114 114 95 102 41 43 14 30 68 79 178 90 85 71 83 96 100 94 82 84 75 83 89 94 101 105 104 114 126 126 130 136 138 143 137 149 145 137 116 108 106 85 48 15 0 348 4 346 202 194 178 170 168 166 167 159 158 162 163 159 156 175 221 176 216 342 339 332 332
83 164 154 263 237 268 324 273 107 128 99 115 94 112 115 111 102 119 71 61 76 70 70 67 60 64 80 88 87 95 67 150 244 288 294 273 221 151 128 137 130 127 111 100 97 99 94 84 105 107 98 109 110 107 116 120 126 135 153 150 143 139 140 136 123 134 127 104 114 79 93 35 28 342 325 276 313 281 257 205 184 175 175 172 162 165 166 165 162 176 229 234 274 291 311 339 322
137 213 110 235 238 239 259 268 65 133 119 96 96 86 106 116 126 144 86 84 90 85 75 81 88 74 69 86 105 124 151 146 163 148 172 206 204 128 125 176 126 128 125 109 102 103 102 111 124 119 127 121 118 117 117 124 122 121 101 258 196 173 172 141 151 146 133 165 155 159 150 141 101 5 322 274 226 280 275 248 215 194 190 189 178 170 172 175 171 183 227 249 265 288 314 320 318
233 151 246 256 230 248 274 1 332 124 114 99 92 78 82 92 93 101 99 99 93 102 117 108 111 118 113 108 84 86 74 78 80 98 117 102 88 71 41 26 9 2 81 102 112 105 122 137 175 166 166 175 142 151 147 146 147 139 134 100 55 8 32 139 151 162 169 175 168 168 154 154 139 145 249 312 323 22 343 306 267 231 214 207 199 188 184 182 174 185 223 262 307 335 329 320 318
267 120 207 234 219 236 286 72 90 89 87 89 82 88 82 78 93 105 124 97 91 99 109 130 133 131 134 127 109 86 93 80 72 70 81 85 81 74 73 57 51 60 76 93 96 113 121 135 357 21 25 19 27 14 34 12 11 101 114 121 107 101 87 71 41 327 269 206 185 185 175 167 152 162 151 142 111 50 12 336 332 326 322 293 224 143 196 202 164 164 192 261 327 329 324 310 330
45 210 214 224 230 241 265 118 123 113 112 106 107 87 81 75 52 80 107 112 135 139 140 133 131 135 139 139 139 141 123 102 83 77 78 77 83 90 89 87 84 81 96 89 97 112 124 97 44 11 20 8 8 18 2 342 35 15 58 78 63 46 88 147 161 162 181 307 336 332 329 273 174 175 157 177 150 156 173 218 276 298 304 294 299 174 345 338 137 173 180 222 237 245 279 294 296
238 273 253 235 212 187 30 106 125 116 119 112 95 97 99 86 63 33 66 100 144 145 131 130 128 124 115 118 136 128 114 101 95 85 87 88 88 86 86 89 99 103 91 101 104 89 71 58 56 60 50 17 3 355 4 21 7 355 3 18 64 10 347 3 269 246 209 212 197 190 192 279 268 238 224 230 211 176 204 206 217 243 277 270 265 184 225 227 221 201 208 227 239 234 243 256 267
208 240 246 252 196 207 101 125 112 106 106 100 106 114 101 104 88 342 89 105 120 107 111 105 107 113 127 123 114 101 99 104 86 67 54 63 67 68 73 83 81 86 87 78 63 68 64 58 45 65 60 61 23 17 25 9 350 351 341 7 45 236 82 310 259 243 240 241 239 231 190 195 233 248 241 242 325 283 278 260 207 209 247 267 254 197 216 220 211 212 221 237 226 237 246 243 253
205 235 249 291 121 173 108 122 110 109 105 112 110 95 90 96 112 112 94 118 104 105 104 93 92 86 88 101 99 102 101 90 84 72 57 44 54 65 56 60 69 82 90 83 87 78 46 46 25 36 34 34 22 6 34 327 311 330 331 340 259 233 167 237 256 276 249 245 236 226 238 250 252 250 256 224 183 216 250 280 281 247 216 245 249 232 214 216 207 205 214 221 222 227 231 240 244
266 256 319 3 1 84 116 106 111 111 114 112 94 100 107 109 107 74 120 120 123 111 80 89 88 84 79 89 89 72 96 99 89 80 73 64 68 70 55 64 59 68 79 87 70 51 17 28 35 20 21 93 73 54 301 308 298 309 271 265 259 273 186 197 224 251 264 268 262 229 225 211 242 249 271 284 248 239 222 253 265 267 258 242 222 233 227 219 217 204 209 216 223 221 225 232 224
246 281 193 70 49 111 126 116 111 101 109 107 110 117 140 174 180 114 184 142 141 103 100 96 99 102 98 104 93 65 80 84 93 98 84 68 63 69 61 48 51 71 56 66 63 64 84 105 252 232 283 213 101 124 224 251 302 297 301 309 323 304 275 234 241 258 269 276 278 270 224 219 228 262 268 275 282 262 217 227 252 261 263 251 234 232 215 227 226 217 210 211 215 218 225 224 222
325 267 34 32 13 106 124 116 123 115 89 106 100 84 74 64 74 130 162 160 132 115 118 116 114 114 113 111 95 87 86 75 79 84 109 107 118 116 93 114 99 70 90 102 143 188 115 220 245 227 220 237 194 195 248 249 270 274 279 281 276 273 258 244 241 245 257 262 268 262 245 228 235 248 254 269 264 265 258 229 230 240 247 252 245 240 222 223 228 235 235 224 223 218 229 225 224
30 59 50 11 24 100 140 135 153 118 138 119 99 79 65 61 113 153 152 137 124 119 122 127 121 117 111 102 110 129 122 142 107 107 121 132 130 147 124 143 143 117 212 162 163 23 354 281 259 251 217 251 260 217 200 216 233 242 244 241 232 229 243 229 222 227 240 253 257 238 231 229 228 219 227 235 248 254 256 258 255 237 241 248 248 249 253 236 230 239 247 238 238 226 234 242 231
64 39 108 28 30 354 337 106 129 121 172 188 94 52 33 87 129 149 148 131 122 118 125 132 129 120 115 120 156 117 99 101 105 123 127 126 126 119 116 106 95 107 79 47 47 21 324 304 268 287 254 276 265 255 246 245 244 245 245 250 251 241 225 210 224 220 226 233 232 228 219 219 227 229 221 230 231 239 250 256 253 250 240 238 250 247 242 240 235 234 242 231 241 228 230 237 229
68 279 63 78 57 329 314 122 138 93 332 24 98 119 125 37 216 156 147 137 127 127 135 141 138 135 136 169 139 124 106 120 130 115 92 72 78 62 73 39 52 55 67 62 81 85 58 32 34 37 26 27 26 10 4 345 335 327 314 305 304 288 275 253 246 238 232 231 223 224 220 219 220 222 224 223 227 225 244 255 255 252 232 240 249 255 243 232 227 241 238 235 242 235 234 239 222
34 54 338 330 91 274 306 331 89 104 55 99 94 89 143 157 173 162 153 147 131 132 141 148 148 142 137 136 131 125 125 121 104 85 75 71 57 59 50 23 24 34 51 48 40 32 32 12 24 27 16 18 15 14 13 14 11 10 14 13 10 2 351 336 321 305 295 285 243 227 221 221 220 221 219 215 226 226 227 240 249 262 260 218 219 248 256 262 242 239 243 229 244 246 234 243 225
7 95 312 340 42 260 334 26 91 120 126 318 108 141 123 147 168 152 160 144 134 136 145 143 141 136 133 134 132 129 123 114 95 91 78 71 49 59 51 43 36 35 62 58 64 51 36 14 21 28 23 18 12 10 11 13 11 10 11 10 11 19 25 10 357 347 336 317 300 284 258 233 226 222 219 212 215 226 229 235 247 253 266 282 264 200 211 238 240 248 260 224 214 244 234 238 240
331 37 126 250 87 348 7 313 42 62 100 68 108 122 167 145 157 153 164 148 138 134 141 142 144 142 141 141 138 140 135 134 134 134 112 82 65 38 18 28 21 24 24 35 40 50 34 20 19 26 26 27 26 15 7 9 9 7 12 9 10 18 13 9 358 358 355 346 330 309 293 285 266 237 225 220 340 300 247 231 244 241 253 267 282 293 272 218 229 230 266 246 209 224 236 231 244
234 300 72 329 10 72 307 48 314 65 92 114 113 111 129 142 147 160 162 154 139 145 146 152 151 148 151 146 147 147 146 145 161 154 138 88 53 32 24 21 24 22 22 26 28 18 15 8 10 9 19 20 25 17 5 9 8 11 11 14 9 7 5 359 2 356 348 341 335 320 316 295 262 261 303 89 223 242 260 266 250 248 238 247 278 300 301 299 270 253 248 280 274 226 236 238 241
194 168 154 152 120 311 356 256 309 98 97 113 132 136 136 143 152 152 155 156 141 140 142 142 152 136 136 176 154 152 152 151 155 144 137 104 84 71 35 25 23 24 26 33 34 25 14 3 2 8 9 11 23 15 8 7 7 7 1 355 3 1 352 349 352 347 335 340 332 331 326 315 296 253 183 193 228 231 228 256 289 287 249 190 29 289 285 284 281 279 272 260 280 291 253 246 259
149 100 94 168 145 259 265 33 264 88 88 153 148 145 151 153 155 156 154 149 144 146 154 164 160 161 171 176 164 161 156 154 155 148 146 131 100 62 46 36 27 24 18 27 31 20 20 12 14 7 349 16 31 14 8 7 357 348 356 359 347 336 334 338 336 332 337 329 328 328 325 313 316 297 254 198 214 213 209 224 223 244 239 181 219 252 263 322 329 297 276 267 261 273 286 286 291
129 118 126 128 94 203 286 329 330 21 114 182 148 143 157 150 149 154 154 144 162 167 163 170 172 170 174 172 167 164 152 124 133 129 125 104 92 64 49 32 31 40 358 17 22 358 3 13 18 350 354 13 28 31 3 351 333 320 308 308 323 324 332 341 337 338 336 328 325 323 321 317 316 304 278 248 238 218 227 229 224 231 236 232 219 237 238 221 266 287 319 321 320 266 260 250 267
91 124 137 134 239 9 301 296 74 1 79 133 180 142 166 162 157 163 167 169 183 177 167 174 170 176 178 173 167 160 152 157 158 155 142 128 103 70 58 51 30 25 357 3 350 14 3 1 355 355 357 0 345 321 38 328 304 316 0 311 339 314 307 329 329 318 324 320 312 319 322 325 327 324 317 280 246 235 226 224 228 223 223 224 223 227 230 216 223 264 236 218 288 299 293 269 254
100 99 96 189 242 122 279 294 42 343 116 147 169 130 156 184 169 170 180 180 182 179 171 174 176 179 178 175 169 162 161 160 164 161 154 141 128 121 107 105 47 15 15 4 1 354 350 348 348 347 342 352 337 332 9 326 291 320 354 348 327 343 298 325 328 325 334 336 335 325 327 333 330 322 320 323 298 252 218 225 235 222 230 216 213 230 222 226 208 244 260 242 247 282 264 281 224
112 140 134 154 167 205 159 238 16 184 0 114 107 73 84 160 177 180 212 205 161 179 172 173 182 195 164 152 155 166 162 163 158 153 157 147 141 149 158 155 87 61 358 338 327 316 340 311 316 328 334 354 326 344 357 332 346 6 357 354 0 352 347 354 350 341 334 323 323 341 330 325 322 316 315 315 300 282 267 244 240 242 228 221 216 231 240 240 224 221 231 254 224 246 281 290 312
125 229 180 198 197 186 194 252 38 18 288 271 133 49 230 260 185 190 195 186 191 176 171 190 178 165 155 161 166 168 170 169 160 165 167 162 154 155 146 128 130 119 10 265 252 283 277 323 337 344 346 348 338 341 347 357 25 40 17 17 7 2 352 346 348 329 327 329 322 306 314 323 320 323 338 336 336 340 341 327 297 309 352 10 2 308 322 318 230 236 234 242 258 210 231 292 283
157 260 193 202 198 185 178 189 100 224 184 266 118 144 258 328 193 185 190 196 184 172 186 186 176 167 166 166 167 171 174 172 162 146 149 155 160 150 157 154 168 168 241 240 283 279 299 294 316 327 333 330 329 345 341 1 29 39 40 30 355 352 338 305 303 298 298 302 307 315 315 321 332 339 343 357 9 8 353 352 80 134 171 182 178 174 206 221 229 211 165 208 228 173 168 237 253
256 245 123 171 211 214 205 176 167 218 221 337 44 107 141 256 280 226 190 179 188 178 190 186 182 174 172 168 169 169 175 166 159 162 165 162 161 160 169 186 175 196 215 244 267 269 250 287 320 339 320 349 325 345 342 345 47 34 36 7 341 357 327 298 307 309 304 303 317 320 325 330 332 338 343 2 11 10 358 0 29 164 184 200 195 188 197 203 218 227 211 225 236 227 214 221 243
215 265 178 240 296 270 177 154 174 212 118 314 328 43 66 261 265 287 179 153 169 187 189 190 183 179 172 167 167 168 169 168 163 163 168 166 167 168 169 175 194 195 216 219 225 247 265 296 15 12 358 351 318 336 344 331 317 118 62 3 7 327 307 305 305 304 314 319 328 327 337 331 332 338 344 354 6 3 340 335 350 44 191 251 277 164 192 204 235 245 193 235 241 224 213 217 228
282 235 50 56 38 35 106 120 115 19 69 243 239 166 172 283 277 326 336 151 172 194 195 187 182 180 171 163 160 164 166 167 169 166 162 164 164 167 173 172 168 193 198 206 222 6 315 22 26 13 352 330 314 331 333 311 322 99 36 3 17 331 329 319 329 324 328 331 335 332 330 335 336 337 339 345 351 336 331 344 357 1 343 310 325 350 328 297 284 286 270 270 269 243 218 224 227
247 34 48 2 38 12 22 69 102 56 55 256 231 265 129 269 260 207 158 208 181 163 188 193 181 172 168 163 163 168 170 168 164 163 159 157 161 153 156 169 191 191 196 192 121 59 29 40 26 8 313 307 322 327 339 307 293 142 103 15 7 336 327 326 339 338 337 345 347 333 336 332 328 330 329 335 340 338 334 345 351 333 329 340 346 354 304 300 296 268 261 265 272 261 238 229 233
65 31 74 27 343 11 28 345 36 86 277 259 267 187 131 150 290 276 240 263 157 157 177 180 176 173 170 167 169 169 165 165 162 155 151 150 140 145 157 186 207 190 173 181 108 357 83 38 42 7 319 321 315 319 335 318 336 291 241 347 356 322 319 318 323 321 323 325 325 324 328 336 342 332 338 346 351 349 345 347 347 351 349 351 347 330 328 315 304 300 303 294 273 257 248 235 227
51 48 33 90 278 30 336 11 4 225 198 242 181 126 24 237 218 222 235 242 199 161 170 175 171 168 164 166 168 168 167 163 161 158 151 152 163 154 198 196 207 195 182 181 186 201 122 8 13 11 308 300 306 325 336 310 312 302 283 326 330 325 318 315 308 309 314 315 313 318 338 344 338 343 349 353 345 346 343 350 352 356 354 348 333 338 321 312 305 290 271 262 260 288 285 277 262
29 323 117 79 52 43 247 277 231 319 293 272 268 271 243 256 292 238 226 229 200 165 166 170 170 167 165 168 168 167 171 168 164 158 159 165 173 173 183 184 192 208 197 164 191 178 184 241 284 295 286 288 306 327 325 319 316 292 292 307 303 323 318 314 310 312 316 313 302 306 322 330 332 337 341 348 337 340 354 346 346 344 340 333 331 336 332 316 316 304 297 291 303 284 271 261 246
256 175 138 170 146 156 223 210 210 209 217 292 283 94 237 105 242 265 232 198 194 158 160 168 172 167 163 163 162 165 168 168 160 163 167 177 178 175 177 177 184 194 187 168 172 201 212 250 273 270 293 298 321 326 334 340 321 329 340 343 338 330 317 319 308 312 322 325 326 329 336 347 359 344 350 332 347 356 358 353 356 360 2 1 356 350 351 350 348 343 328 307 304 283 296 286 273
307 124 88 65 231 146 163 206 151 236 319 356 276 200 177 163 244 278 121 105 74 108 125 126 127 140 147 152 161 168 169 167 167 167 174 182 177 177 171 175 178 181 178 169 181 191 194 228 233 243 246 273 307 351 359 5 54 67 7 0 352 354 337 329 334 341 342 344 337 350 359 6 360 4 2 14 15 19 18 22 24 24 24 23 20 17 15 12 4 1 349 348 334 320 307 303 296
268 53 250 207 173 108 90 7 53 81 50 263 190 318 309 302 350 334 14 74 75 99 117 130 135 144 151 158 164 170 170 169 171 174 180 179 178 179 174 173 176 176 174 178 186 188 191 208 216 243 267 280 320 343 301 302 73 45 360 1 6 2 352 344 340 341 347 349 7 10 21 17 18 23 19 29 36 33 34 32 29 22 22 22 23 19 16 13 8 10 8 7 3 348 350 334 321
56 66 245 127 83 113 124 185 335 61 158 258 9 225 293 31 241 319 20 93 121 130 134 147 145 145 157 165 169 172 174 174 173 178 181 178 178 176 175 178 178 179 178 181 188 189 196 197 194 198 255 297 340 351 87 299 55 27 358 359 353 355 344 342 348 349 351 21 24 24 25 29 31 30 41 42 41 38 31 32 28 25 22 23 21 17 14 11 9 11 6 10 4 356 6 10 4
160 186 204 86 288 331 322 91 340 302 286 274 319 274 256 161 236 339 199 159 163 168 145 142 158 162 164 171 172 170 166 167 176 180 177 177 177 177 177 181 185 181 178 180 185 184 197 204 202 176 199 120 82 63 29 1 38 24 3 357 347 349 349 345 348 2 21 41 42 42 41 33 35 33 34 36 38 36 34 30 29 29 23 21 19 17 10 11 7 13 10 7 2 360 6 25 24
60 84 18 322 99 165 128 203 185 118 249 53 288 53 212 216 215 190 220 200 169 170 163 175 175 176 166 166 168 170 174 177 177 177 178 179 181 179 179 181 180 178 177 181 174 176 195 201 177 175 34 96 86 109 185 75 17 36 20 0 358 349 346 346 351 13 30 43 48 54 53 52 40 45 40 45 44 38 32 30 27 30 25 21 21 15 10 7 10 17 8 8 359 2 13 35 42
11 62 326 357 6 219 105 358 131 166 178 179 184 333 283 267 217 178 200 191 178 167 182 190 189 181 174 168 169 173 174 177 178 176 178 179 181 180 183 182 177 167 169 163 158 176 183 160 155 158 128 85 94 131 89 6 332 346 14 17 350 346 346 350 1 14 48 50 63 65 58 58 53 43 43 48 45 40 35 33 32 32 28 22 19 16 8 7 15 10 10 6 2 9 22 41 50
166 160 195 170 125 106 126 268 339 114 94 214 119 252 266 270 200 208 184 202 171 183 174 191 194 186 174 177 177 172 176 181 176 177 175 177 178 178 181 173 159 147 158 150 163 156 149 152 151 148 127 123 121 141 159 206 261 295 1 350 354 342 343 357 17 13 47 62 73 76 77 69 67 52 47 49 44 40 39 36 38 33 30 26 23 20 12 11 19 13 13 10 7 16 48 55 51